Total_Precipitation_Accumulation
3.03 3.09 3.08 2.98 2.72 3.07 3.52 3.77 3.37 3.60 3.65 3.27 2.93 2.75 2.73 2.67 2.81 3.03 2.92 3.03 2.99 3.01 3.35 3.53 3.36 3.08 2.86 2.52 2.20 1.95 1.72 1.58 1.42 1.19 1.00 0.96 0.94 0.93 0.89 0.86 0.81 0.74 0.70
3.55 3.56 3.41 3.29 2.90 2.89 3.23 3.46 3.42 3.83 3.68 3.49 2.86 2.69 2.62 2.74 2.92 2.96 3.01 3.48 3.38 3.12 3.19 3.52 3.76 3.72 3.47 3.26 2.87 2.51 2.20 2.00 1.87 1.53 1.20 1.09 1.05 1.02 0.98 0.98 1.04 0.94 0.77
4.04 3.88 3.66 3.26 3.02 3.03 3.26 3.22 3.23 3.37 3.23 3.12 2.85 2.88 2.84 2.79 2.73 2.80 3.01 3.29 3.18 2.89 2.93 3.16 3.61 3.92 4.14 4.14 3.85 3.54 2.95 2.43 2.20 1.87 1.49 1.21 1.07 1.01 0.99 1.00 1.07 1.04 0.88
3.81 3.80 3.48 3.05 3.07 3.08 3.13 3.26 3.11 3.21 3.18 3.17 3.12 2.87 2.88 2.87 2.51 2.50 2.67 2.76 2.94 2.60 2.74 2.93 3.11 3.41 4.13 4.79 5.13 5.04 4.31 3.38 2.69 2.29 1.98 1.62 1.35 1.17 1.03 1.02 1.12 1.10 0.93
3.57 3.72 3.42 3.23 3.12 3.07 2.95 2.72 3.17 3.35 3.35 3.31 2.94 2.81 2.56 2.35 2.20 2.03 2.06 1.95 2.18 2.39 2.63 2.64 2.83 3.04 3.79 4.85 5.82 6.12 5.62 4.56 3.67 3.08 2.73 2.33 1.97 1.63 1.33 1.21 1.17 1.08 0.97
3.22 3.44 3.15 3.06 3.13 3.24 3.09 3.06 3.38 3.44 3.17 3.22 2.80 2.68 2.53 2.09 1.98 1.92 1.80 1.80 1.77 1.73 2.13 2.59 3.02 2.68 3.05 3.96 4.90 5.69 6.17 5.81 4.87 4.12 3.53 3.12 2.74 2.32 1.84 1.59 1.47 1.37 1.27
2.85 3.21 2.97 3.31 3.10 3.02 2.89 2.82 2.93 3.01 2.74 2.94 3.23 2.78 2.25 1.91 1.80 1.70 1.69 1.73 1.67 1.77 2.13 2.60 2.91 3.04 2.83 2.75 3.23 3.97 5.14 5.77 5.41 4.69 4.06 3.60 3.20 2.85 2.36 2.05 1.86 1.68 1.58
2.94 2.76 2.97 2.79 2.76 2.87 2.66 2.56 2.77 2.79 2.50 2.79 3.02 3.08 2.50 2.21 1.86 1.38 1.52 1.63 1.72 1.96 2.01 2.11 2.53 2.90 2.81 3.10 2.61 2.56 3.58 4.63 5.30 5.23 4.61 3.99 3.51 3.09 2.69 2.43 2.11 1.77 1.59
3.08 2.93 2.82 2.64 2.59 2.44 2.57 2.60 2.65 2.72 2.68 2.59 2.64 2.95 2.69 2.36 1.96 1.50 1.42 1.63 1.92 2.14 2.13 2.19 2.18 2.44 2.54 2.90 2.85 2.59 2.55 3.07 4.08 5.12 5.20 4.52 3.70 3.05 2.66 2.60 2.48 2.14 1.84
3.20 2.91 2.73 2.55 2.39 2.26 2.54 2.24 2.34 2.65 2.84 2.53 2.47 2.44 2.40 2.51 2.41 2.04 1.61 1.47 1.74 1.92 1.98 1.88 1.93 2.13 2.34 2.67 2.81 2.79 2.51 2.46 3.01 4.06 4.71 4.70 4.14 3.45 2.99 2.97 3.23 3.16 2.66
2.92 2.59 2.52 2.48 2.31 2.18 2.22 2.22 2.51 2.52 2.55 2.48 2.52 2.46 2.53 2.69 2.53 2.38 2.02 1.86 1.98 1.90 1.80 1.75 1.81 1.98 2.23 2.55 2.87 2.85 3.04 2.73 2.56 2.81 3.34 3.75 3.95 3.75 3.42 3.55 4.12 4.44 4.12
2.54 2.32 2.24 2.36 2.24 2.14 2.16 2.17 2.31 2.37 2.53 2.61 2.59 2.54 2.59 2.59 2.61 2.81 2.45 2.20 2.17 1.88 1.81 1.81 1.90 2.04 2.21 2.44 2.44 2.62 2.79 2.87 2.71 2.61 2.69 2.89 3.19 3.46 3.61 3.87 4.36 4.83 5.07
2.08 2.03 2.12 2.27 2.13 2.08 2.17 2.32 2.35 2.34 2.46 2.54 2.47 2.55 2.62 2.57 2.69 2.87 2.79 2.44 2.23 1.97 2.00 1.99 1.97 2.19 2.22 2.51 2.74 2.66 2.39 2.47 2.41 2.35 2.32 2.36 2.44 2.73 3.07 3.37 3.92 4.49 4.94
1.83 1.87 2.09 2.18 2.11 2.03 2.03 2.42 2.41 2.43 2.53 2.50 2.39 2.70 2.74 2.52 2.71 2.91 3.03 3.04 2.71 2.52 2.55 2.51 2.24 2.22 2.35 2.48 2.71 2.54 2.32 2.32 2.03 1.94 1.89 1.91 1.96 2.08 2.28 2.55 2.90 3.28 3.58
1.88 1.95 2.02 2.22 2.32 2.40 2.45 2.59 2.52 2.53 2.72 2.69 2.65 2.84 2.82 2.64 2.65 2.78 3.00 3.21 3.24 3.04 2.95 2.84 2.51 2.38 2.35 2.33 2.44 2.31 2.41 2.32 1.88 1.64 1.57 1.55 1.52 1.53 1.60 1.76 2.00 2.32 2.54
1.98 2.03 2.04 2.13 2.28 2.41 2.47 2.61 2.63 2.67 2.84 2.85 2.91 2.97 2.84 2.58 2.71 2.75 2.89 3.18 3.45 3.50 3.23 2.82 2.58 2.45 2.45 2.17 2.19 2.00 2.05 1.97 1.66 1.50 1.40 1.36 1.30 1.28 1.29 1.36 1.49 1.77 1.97
1.97 2.02 2.04 2.03 2.04 2.19 2.39 2.60 2.55 2.71 2.84 2.89 2.86 2.76 2.65 2.69 2.85 2.78 2.92 3.08 3.31 3.55 3.29 2.93 2.77 2.72 2.70 2.51 2.32 2.03 1.78 1.67 1.56 1.60 1.44 1.29 1.24 1.22 1.26 1.33 1.40 1.51 1.68
2.03 2.02 2.01 2.02 1.97 2.08 2.33 2.49 2.57 2.82 2.97 2.87 2.78 2.73 2.61 2.74 2.84 2.81 2.89 2.89 2.98 3.27 3.17 2.96 2.89 2.93 2.81 2.58 2.44 2.25 1.89 1.70 1.71 1.80 1.62 1.43 1.32 1.30 1.26 1.27 1.36 1.45 1.55
1.96 1.95 2.01 2.09 2.18 2.29 2.46 2.56 2.66 2.84 2.83 2.73 2.73 2.65 2.54 2.63 2.58 2.64 2.66 2.67 2.67 2.77 2.96 2.88 2.78 2.86 2.76 2.56 2.47 2.29 2.16 2.25 2.04 1.88 1.74 1.57 1.45 1.39 1.36 1.29 1.31 1.40 1.50
1.71 1.79 2.01 2.25 2.39 2.52 2.60 2.63 2.64 2.62 2.62 2.53 2.42 2.35 2.37 2.50 2.59 2.56 2.46 2.45 2.53 2.67 2.76 2.79 2.77 2.84 2.85 2.83 2.70 2.55 2.53 2.46 2.29 1.86 1.79 1.60 1.47 1.35 1.28 1.19 1.21 1.37 1.51
1.70 1.93 2.11 2.20 2.25 2.30 2.36 2.49 2.48 2.41 2.40 2.31 2.22 2.05 2.08 2.39 2.53 2.48 2.27 2.38 2.45 2.52 2.60 2.72 2.77 2.86 2.93 3.12 2.91 2.61 2.49 2.54 2.39 2.16 2.01 1.79 1.64 1.51 1.45 1.39 1.33 1.33 1.36
1.90 2.09 2.08 2.06 2.02 1.73 1.84 1.95 2.01 2.06 2.11 2.09 1.98 1.92 1.91 1.98 2.01 2.04 2.01 2.01 2.08 2.17 2.39 2.66 2.74 2.74 2.72 2.81 2.89 2.77 2.65 2.60 2.56 2.46 2.48 2.37 2.04 1.97 1.85 1.69 1.56 1.31 1.17
2.09 2.21 2.19 2.13 1.98 1.87 1.75 1.64 1.65 1.73 1.89 1.92 1.94 2.01 1.74 1.57 1.70 1.72 1.83 1.80 1.72 1.80 1.94 2.22 2.41 2.41 2.50 2.53 2.78 2.81 2.85 2.88 2.84 2.79 2.78 2.81 2.47 2.16 1.91 1.81 1.72 1.37 1.21
2.34 2.36 2.34 2.25 2.14 2.04 1.94 1.75 1.74 1.67 1.79 1.83 1.83 1.85 1.80 1.68 1.63 1.75 1.81 1.74 1.58 1.53 1.51 1.51 1.74 2.03 2.26 2.49 2.55 2.61 2.73 2.80 2.81 2.66 2.59 2.67 2.50 2.35 2.02 1.75 1.62 1.42 1.23
2.49 2.47 2.53 2.43 2.33 2.32 2.15 1.79 1.63 1.57 1.74 1.79 1.80 1.73 1.68 1.62 1.65 1.53 1.48 1.50 1.50 1.49 1.33 1.32 1.40 1.62 1.81 1.88 2.09 2.35 2.58 2.58 2.52 2.32 2.14 2.23 2.29 2.31 2.29 2.03 1.64 1.49 1.29
2.65 2.64 2.58 2.57 2.46 2.39 2.30 1.77 1.49 1.43 1.63 1.69 1.76 1.72 1.59 1.44 1.43 1.30 1.28 1.43 1.42 1.43 1.45 1.36 1.26 1.29 1.38 1.53 1.62 1.70 2.02 2.25 2.17 2.12 1.87 1.78 1.78 1.90 2.08 1.89 1.60 1.49 1.44